Starlink 30443

operational
NORAD ID: 57894 Int'l Des: 2023-146 Owner: SPXS Country: US Constellation: starlink
LEOCIRCULAR

About Starlink 30443

Description loading...

Live Position

Loading 3D Globe...

Upcoming Passes

Altitude History

Altitude vs Time

uPlot chart will show altitude changes over time

Two-Line Element Set

1 57894U 23146D 25302.72105836 .00000384 00000-0 43498-4 0 9990
2 57894 43.0045 305.1265 0001210 271.8202 88.2502 15.02539119117368
Epoch: Oct 29, 2025 • Age: 32 hours

Current Status

Altitude 559.5 km
Velocity 7.59 km/s
Sub-Earth Point 26.30°N, 90.84°W
Launch Date Sep 20, 2023
Age 2.1 years
Type internet

Technical Details

Classification Payload
Mass 730.00 kg
Dry Mass 700.00 kg
Total Mass 730.00 kg
Length 0.30 m
Diameter 4.10 m
Span 29.00 m
Shape Box + pan
Manufacturer SPXS
Bus Type Starlink V2M
Phase Status In Orbit
Owner/State SPXS/US

Large Constellations

Loading constellations...